Regional Weather Roundup
Issued by NWS

Home | Current Version | Previous Version | Text Only | Print | Product List | Glossary On
Versions: 1 2 3 4 5 6 7 8 9 10 11 12 13 14 15 16 17 18 19 20 21 22 23 24 25 26 27 28 29 30 31 32 33 34 35 36 37 38 39 40 41 42 43 44 45 46 47 48 49 50
000
ASUS45 KBOU 300507
RWRCO

WEATHER ROUNDUP FOR COLORADO
NATIONAL WEATHER SERVICE DENVER/BOULDER CO
1100 PM MDT FRI AUG 29 2014

NOTE: "FAIR" INDICATES FEW OR NO CLOUDS BELOW 12000 FEET WITH NO
SIGNIFICANT WEATHER AND/OR OBSTRUCTIONS TO VISIBILITY.

COZ001>005-013-030-031-300600-
...NORTHWEST COLORADO...

CITY           SKY/WX    TMP DP  RH WIND       PRES   REMARKS
CRAIG          CLEAR     55  49  80 E7        30.20R
HAYDEN         MOCLDY    57  45  62 CALM      30.22S
MEEKER         CLEAR     55  47  74 SE3       30.23R
MOUNT WERNER   NOT AVBL
STEAMBOAT SPGS CLEAR     55  46  71 E3        30.24S
WALDEN         PTCLDY    50  41  71 SE6       30.31S
$$

COZ006>008-011-300600-
...WEST CENTRAL VALLEYS...

CITY           SKY/WX    TMP DP  RH WIND       PRES   REMARKS
GRAND JUNCTION PTCLDY    64  51  62 CALM      30.10R
MONTROSE       CLEAR     63  47  55 SE10      30.20R
EAGLE          CLEAR     54  46  76 CALM      30.27S
RIFLE          CLEAR     62  48  60 SE7       30.17R
DELTA          CLEAR     68  49  51 N6        30.15R
NUCLA          CLEAR     63  45  51 E9        30.22R
$$

COZ017>023-064>068-300600-
...SOUTHWEST COLORADO...

CITY           SKY/WX    TMP DP  RH WIND       PRES   REMARKS
DURANGO        CLEAR     60  41  49 N9        30.21R
CORTEZ         CLEAR     55  47  74 CALM      30.18S
PAGOSA SPRINGS CLEAR     57  35  44 N3        30.30R
TELLURIDE      NOT AVBL
WOLF CREEK PAS CLOUDY    45  32  61 NE21      30.59S
$$

COZ009-010-012-014-032>034-037-058>063-300600-
...CENTRAL COLORADO...

CITY           SKY/WX    TMP DP  RH WIND       PRES   REMARKS
ASPEN          CLEAR     51  42  71 SW9       30.33S
BUENA VISTA    PTCLDY    49  42  79 NW3       30.37S
COPPER MTN     MOCLDY    46  28  49 S9        30.59S
BERTHOUD PASS  FAIR      37  36  93 W13       30.62S
COTTONWOOD PAS PTCLDY    52  32  46 W6        30.47S
GUNNISON       CLEAR     52  43  71 N3        30.35R
KREMMLING      CLEAR     50  45  81 N5        30.32S
LEADVILLE      CLEAR     40  35  83 NE6       30.46S
SALIDA         PTCLDY    57  43  59 CALM      30.42R
SUNLIGHT       CLEAR     52  39  62 CALM      30.53S
WILKERSON PASS NOT AVBL
$$

COZ069>075-300600-
...SAN LUIS VALLEY/SANGRE DE CRISTO MOUNTAINS...

CITY           SKY/WX    TMP DP  RH WIND       PRES   REMARKS
ALAMOSA        CLOUDY    58  42  55 SE9       30.32R
LA VETA PASS   NOT AVBL
SAGUACHE       NOT AVBL
$$

COZ035-036-038>040-300600-
...NORTHERN COLORADO FRONT RANGE...

CITY           SKY/WX    TMP DP  RH WIND       PRES   REMARKS
DENVER INTL AP MOCLDY    61  48  62 S14G20    30.14F
DMNS CITY PARK   N/A     61  47  59 SW3G13    30.14F
AURORA         MOCLDY    57  47  69 SE9       30.19S
FRONT RANGE AP MOCLDY    63  50  63 S12       30.17F
ERIE MUNI ARPT MOCLDY    64  47  55 SW3       30.14R
BOULDER MUN AP NOT AVBL
CENTENNIAL     PTCLDY    57  46  66 SW9       30.19F
BROOMFIELD     NOT AVBL
FORT COLLINS   CLOUDY    57  50  77 SW5       30.14S
LONGMONT       CLOUDY    61  53  74 W3        30.15F
$$

COZ041-046-047-076>085-087-088-300600-
...PIKES PEAK/PALMER DIVIDE AND SOUTHERN FOOTHILLS...

CITY           SKY/WX    TMP DP  RH WIND       PRES   REMARKS
COLO. SPRINGS  MOCLDY    61  47  59 W6        30.24F
A. F. ACADEMY  MOCLDY    53  49  88 N8        30.25F
ELLICOTT       MOCLDY    57  50  77 W3        30.23S
FALCON         MOCLDY    56  45  66 SW6       30.28F
FORT CARSON    MOCLDY    61  47  60 SW10      30.21F
LIMON          MOCLDY    57  50  77 N7        30.18R
MONUMENT HILL  PTCLDY    50  43  76 SW8       30.28R
TRINIDAD       LGT RAIN  63  46  54 NW8       30.28R
$$

COZ042>045-048>051-090-091-300600-
...NORTHEAST COLORADO...

CITY           SKY/WX    TMP DP  RH WIND       PRES   REMARKS
GREELEY ARPT   CLOUDY    57  48  72 CALM      30.12F
AKRON          MOCLDY    59  51  75 E5        30.12R
BURLINGTON     MOCLDY    63  58  83 SE3       30.10S
WRAY             N/A     67  57  71 CALM      30.09R
STERLING       MOCLDY    66  54  63 E5        30.08S
HOLYOKE        PTCLDY    63  57  82 E3        30.09R
FORT MORGAN    MOCLDY    59  53  78 SW3       30.13R
$$

COZ086-089-092>099-300600-
...SOUTHEAST COLORADO...

CITY           SKY/WX    TMP DP  RH WIND       PRES   REMARKS
PUEBLO         MOCLDY    67  49  52 SW9       30.16F
LA JUNTA       LGT RAIN  67  54  63 N8        30.11F
LAMAR          CLOUDY    73  50  44 N6        30.06F
SPRINGFIELD      N/A     66  49  54 N9        30.14R
$$



USA.gov is the U.S. government's official web portal to all federal, state and local government web resources and services.